Location: Le Petit-Vavre
(46.5081°N, 1.5239°E)
Time: 19:40:11
(UTC+00:00)

SL-16 R/B - Pass Details

Date: 03 March 2021
Orbit: 843 x 845 km, 71.0° (Epoch: 21 April)

Event Time Altitude Azimuth Distance (km) Brightness Sun altitude
Rises 19:30:15 0° 233° (SW) 3,392 6.0 -19.2°
Reaches altitude 10° 19:32:54 10° 242° (WSW) 2,461 5.3 -19.6°
Maximum altitude 19:38:03 35° 307° (NW) 1,334 3.8 -20.5°
Drops below altitude 10° 19:43:14 10° 13° (NNE) 2,476 4.6 -21.4°
Sets 19:45:55 0° 23° (NNE) 3,415 5.3 -21.8°
